Location: Frizzleburg
(41.0764°N, 80.4548°W)
Time: 02:21:25
(UTC+00:00)

STARLINK-63 - Pass Details

Date: 17 November 2019
Orbit: 529 x 531 km, 53.0° (Epoch: 12 December)

Event Time Altitude Azimuth Distance (km) Brightness Sun altitude
Exits shadow 11:17:48 11° 257° (WSW) 1,743 5.6 -10.3°
Maximum altitude 11:21:33 43° 329° (NNW) 775 4.0 -9.6°
Drops below altitude 10° 11:25:34 10° 42° (NE) 1,855 6.7 -8.9°
Sets 11:27:57 0° 49° (NE) 2,776 7.7 -8.5°
